Location: Newark
(25.4297°S, 49.2719°W)
Time: 05:26:51
(UTC+00:00)

Tiros 1 - Pass Details

Date: 22 November 2019
Orbit: 630 x 664 km, 48.4° (Epoch: 08 December)

Event Time Altitude Azimuth Distance (km) Brightness Sun altitude
Exits shadow 04:19:16 12° 166° (SSE) 1,990 10.3 -40.9°
Drops below altitude 10° 04:19:39 10° 163° (SSE) 2,100 10.4 -40.9°
Sets 04:22:28 0° 148° (SSE) 3,017 11.4 -40.6°
